| time (UTC) | temp F | wind direction | speed knots | gust knots | rain 1hr in | rain 24hr in | rain mn in | humidity % | barometer mb |
| 20260507051835 | 52 | 229 | 9.6 | 16.5 | 0.00 | 0.00 | 0.00 | 86 | 1021.3 |
| 20260507050323 | 52 | 247 | 8.7 | 16.5 | 0.00 | 0.00 | 0.00 | 85 | 1021.5 |
| 20260507044851 | 52 | 266 | 11.3 | 16.5 | 0.00 | 0.00 | 0.00 | 85 | 1021.3 |
| 20260507043338 | 52 | 237 | 9.6 | 19.1 | 0.00 | 0.00 | 0.00 | 84 | 1021.3 |
| 20260507041823 | 53 | 258 | 9.6 | 14.8 | 0.00 | 0.00 | 0.00 | 84 | 1021.1 |
| 20260507040326 | 53 | 235 | 9.6 | 16.5 | 0.00 | 0.00 | 0.00 | 84 | 1020.9 |
| 20260507034815 | 53 | 223 | 9.6 | 15.6 | 0.00 | 0.00 | 0.00 | 84 | 1020.8 |
| 20260507033347 | 54 | 244 | 9.6 | 16.5 | 0.00 | 0.00 | 0.00 | 83 | 1020.7 |
| 20260507031854 | 54 | 211 | 9.6 | 13.9 | 0.00 | 0.00 | 0.00 | 83 | 1020.6 |
| 20260507030323 | 55 | 220 | 7.0 | 12.2 | 0.00 | 0.00 | 0.00 | 81 | 1020.5 |
| 20260507024827 | 56 | 221 | 5.2 | 12.2 | 0.00 | 0.00 | 0.00 | 80 | 1020.5 |
| 20260507023358 | 57 | 227 | 7.8 | 13.0 | 0.00 | 0.00 | 0.00 | 78 | 1020.4 |
| 20260507021823 | 59 | 242 | 6.1 | 13.0 | 0.00 | 0.00 | 0.00 | 76 | 1020.4 |
| 20260507020331 | 60 | 221 | 7.8 | 14.8 | 0.00 | 0.00 | 0.00 | 74 | 1020.5 |
| 20260507014814 | 61 | 242 | 7.0 | 15.6 | 0.00 | 0.00 | 0.00 | 72 | 1020.6 |
| 20260507013349 | 63 | 244 | 7.0 | 13.0 | 0.00 | 0.00 | 0.00 | 71 | 1020.6 |
| 20260507011829 | 63 | 212 | 6.1 | 11.3 | 0.00 | 0.00 | 0.00 | 71 | 1020.5 |
| 20260507010344 | 64 | 243 | 8.7 | 14.8 | 0.00 | 0.00 | 0.00 | 69 | 1020.7 |
| 20260507004832 | 66 | 231 | 7.8 | 13.0 | 0.00 | 0.00 | 0.00 | 68 | 1020.7 |
| 20260507003342 | 67 | 225 | 4.3 | 12.2 | 0.00 | 0.00 | 0.00 | 66 | 1020.6 |
| 20260507001851 | 67 | 252 | 6.1 | 13.9 | 0.00 | 0.00 | 0.00 | 65 | 1020.6 |
| 20260507000338 | 68 | 238 | 5.2 | 10.4 | 0.00 | 0.00 | 0.00 | 64 | 1020.6 |
| 20260506234846 | 69 | 239 | 6.1 | 13.0 | 0.00 | 0.00 | 0.00 | 64 | 1020.6 |
| 20260506233350 | 70 | 253 | 4.3 | 9.6 | 0.00 | 0.00 | 0.00 | 62 | 1020.5 |
| 20260506231836 | 72 | 227 | 4.3 | 9.6 | 0.00 | 0.00 | 0.00 | 62 | 1020.6 |
| 20260506230327 | 72 | 209 | 5.2 | 10.4 | 0.00 | 0.00 | 0.00 | 62 | 1020.5 |
| 20260506224838 | 73 | 225 | 4.3 | 10.4 | 0.00 | 0.00 | 0.00 | 63 | 1020.7 |
| 20260506223327 | 73 | 214 | 4.3 | 7.0 | 0.00 | 0.00 | 0.00 | 65 | 1020.8 |
| 20260506221830 | 72 | 202 | 3.5 | 7.8 | 0.00 | 0.00 | 0.00 | 62 | 1020.9 |
| 20260506220333 | 72 | 233 | 2.6 | 7.0 | 0.00 | 0.00 | 0.00 | 65 | 1020.8 |
| 20260506214837 | 71 | 216 | 4.3 | 8.7 | 0.00 | 0.00 | 0.00 | 67 | 1020.9 |
| 20260506213322 | 70 | 222 | 3.5 | 7.8 | 0.00 | 0.00 | 0.00 | 66 | 1021.0 |
| 20260506211827 | 69 | 117 | 2.6 | 6.1 | 0.00 | 0.00 | 0.00 | 67 | 1020.9 |
| 20260506210331 | 68 | 192 | 0.9 | 7.0 | 0.00 | 0.00 | 0.00 | 72 | 1021.1 |
| 20260506204836 | 66 | 177 | 0.9 | 7.0 | 0.00 | 0.00 | 0.00 | 71 | 1021.3 |
| 20260506203322 | 66 | 233 | 3.5 | 6.1 | 0.00 | 0.00 | 0.00 | 75 | 1021.3 |
| 20260506201849 | 65 | 225 | 0.9 | 7.8 | 0.00 | 0.00 | 0.00 | 75 | 1021.4 |
| 20260506200336 | 65 | 207 | 0.9 | 6.1 | 0.00 | 0.00 | 0.00 | 75 | 1021.4 |
| 20260506194843 | 64 | 198 | 0.9 | 6.1 | 0.00 | 0.00 | 0.00 | 79 | 1021.4 |
| 20260506193328 | 64 | 201 | 3.5 | 7.8 | 0.00 | 0.00 | 0.00 | 78 | 1021.4 |
| 20260506191858 | 64 | 120 | 4.3 | 9.6 | 0.00 | 0.00 | 0.00 | 80 | 1021.5 |
| 20260506190323 | 62 | 178 | 3.5 | 7.0 | 0.00 | 0.00 | 0.00 | 80 | 1021.5 |
| 20260506184832 | 61 | 147 | 1.7 | 7.8 | 0.00 | 0.00 | 0.00 | 83 | 1021.5 |
| 20260506183333 | 60 | 154 | 2.6 | 7.0 | 0.00 | 0.00 | 0.00 | 85 | 1021.6 |
| 20260506181821 | 59 | 202 | 3.5 | 7.0 | 0.00 | 0.00 | 0.00 | 85 | 1021.6 |
| 20260506180331 | 58 | 112 | 6.1 | 8.7 | 0.00 | 0.00 | 0.00 | 87 | 1021.5 |
| 20260506174833 | 57 | 115 | 6.1 | 8.7 | 0.00 | 0.00 | 0.00 | 88 | 1021.2 |
| 20260506173319 | 56 | 204 | 0.9 | 6.1 | 0.00 | 0.00 | 0.00 | 89 | 1021.4 |
| 20260506171826 | 55 | 197 | 2.6 | 6.1 | 0.00 | 0.00 | 0.00 | 90 | 1021.7 |
| 20260506170314 | 54 | 208 | 2.6 | 6.1 | 0.00 | 0.00 | 0.00 | 92 | 1021.2 |
| 20260506164829 | 54 | 219 | 1.7 | 6.1 | 0.00 | 0.00 | 0.00 | 92 | 1021.5 |
| 20260506163335 | 53 | 204 | 2.6 | 7.0 | 0.00 | 0.00 | 0.00 | 93 | 1021.5 |
| 20260506161835 | 53 | 194 | 2.6 | 6.1 | 0.00 | 0.00 | 0.00 | 94 | 1021.5 |
| 20260506160322 | 53 | 176 | 1.7 | 5.2 | 0.00 | 0.00 | 0.00 | 94 | 1021.1 |
| 20260506154849 | 52 | 167 | 1.7 | 3.5 | 0.00 | 0.00 | 0.00 | 94 | 1020.9 |
| 20260506153330 | 52 | 203 | 0.9 | 3.5 | 0.00 | 0.00 | 0.00 | 94 | 1021.3 |
| 20260506151836 | 52 | 186 | 2.6 | 5.2 | 0.00 | 0.00 | 0.00 | 94 | 1021.3 |
| 20260506150324 | 52 | 237 | 2.6 | 7.0 | 0.00 | 0.00 | 0.00 | 94 | 1021.4 |
| 20260506144827 | 52 | 218 | 5.2 | 12.2 | 0.00 | 0.00 | 0.00 | 93 | 1021.4 |
| 20260506143331 | 51 | 207 | 7.8 | 11.3 | 0.00 | 0.00 | 0.00 | 93 | 1020.8 |
| 20260506141834 | 51 | 169 | 4.3 | 7.8 | 0.00 | 0.00 | 0.00 | 94 | 1020.3 |
| 20260506140321 | 51 | 175 | 2.6 | 5.2 | 0.00 | 0.00 | 0.00 | 95 | 1020.2 |
| 20260506134824 | 51 | 177 | 1.7 | 5.2 | 0.00 | 0.00 | 0.00 | 94 | 1020.4 |
| 20260506133330 | 50 | 179 | 2.6 | 5.2 | 0.00 | 0.00 | 0.00 | 93 | 1020.4 |
| 20260506131832 | 50 | 208 | 0.9 | 3.5 | 0.00 | 0.00 | 0.00 | 91 | 1020.2 |
| 20260506130337 | 51 | 221 | 2.6 | 3.5 | 0.00 | 0.00 | 0.00 | 90 | 1020.2 |
| 20260506124821 | 52 | 235 | 0.9 | 1.7 | 0.00 | 0.00 | 0.00 | 90 | 1020.1 |
| 20260506123326 | 52 | 234 | 1.7 | 7.0 | 0.00 | 0.00 | 0.00 | 90 | 1020.1 |
| 20260506121813 | 52 | 209 | 2.6 | 4.3 | 0.00 | 0.00 | 0.00 | 90 | 1020.1 |
| 20260506120325 | 52 | 210 | 2.6 | 3.5 | 0.00 | 0.00 | 0.00 | 90 | 1019.9 |
| 20260506114829 | 52 | 250 | 1.7 | 5.2 | 0.00 | 0.00 | 0.00 | 91 | 1020.0 |
| 20260506113353 | 52 | 287 | 1.7 | 3.5 | 0.00 | 0.00 | 0.00 | 92 | 1019.5 |
| 20260506111818 | 52 | 196 | 1.7 | 4.3 | 0.00 | 0.00 | 0.00 | 93 | 1019.3 |
| 20260506110323 | 52 | 238 | 0.0 | 2.6 | 0.00 | 0.00 | 0.00 | 93 | 1019.3 |
| 20260506104825 | 52 | 228 | 2.6 | 4.3 | 0.00 | 0.00 | 0.00 | 94 | 1019.0 |
| 20260506103330 | 51 | 233 | 0.0 | 0.9 | 0.00 | 0.00 | 0.00 | 93 | 1018.8 |
| 20260506101855 | 51 | 233 | 0.0 | 0.0 | 0.00 | 0.00 | 0.00 | 91 | 1018.7 |
| 20260506100337 | 52 | 232 | 0.0 | 0.9 | 0.00 | 0.00 | 0.00 | 90 | 1018.6 |
| 20260506094822 | 52 | 233 | 0.0 | 0.9 | 0.00 | 0.00 | 0.00 | 90 | 1018.5 |
| 20260506093328 | 53 | 233 | 0.0 | 1.7 | 0.00 | 0.00 | 0.00 | 89 | 1018.4 |
| 20260506091828 | 54 | 232 | 0.9 | 1.7 | 0.00 | 0.00 | 0.00 | 89 | 1018.3 |
| 20260506090333 | 54 | 225 | 1.7 | 5.2 | 0.00 | 0.00 | 0.00 | 90 | 1018.1 |
| 20260506084819 | 54 | 224 | 6.1 | 9.6 | 0.00 | 0.00 | 0.00 | 89 | 1018.1 |
| 20260506083324 | 54 | 222 | 6.1 | 8.7 | 0.00 | 0.00 | 0.00 | 88 | 1018.0 |
| 20260506081826 | 54 | 231 | 2.6 | 7.8 | 0.00 | 0.00 | 0.00 | 88 | 1018.1 |
| 20260506080333 | 55 | 227 | 5.2 | 7.0 | 0.00 | 0.00 | 0.00 | 87 | 1018.1 |
| 20260506073319 | 57 | 237 | 0.9 | 1.7 | 0.00 | 0.00 | 0.00 | 86 | 1018.0 |
| 20260506071825 | 57 | 237 | 0.0 | 1.7 | 0.00 | 0.00 | 0.00 | 85 | 1018.0 |
| 20260506070331 | 57 | 228 | 0.0 | 1.7 | 0.00 | 0.00 | 0.00 | 86 | 1018.0 |
| 20260506061839 | 57 | 229 | 1.7 | 2.6 | 0.00 | 0.00 | 0.00 | 85 | 1017.9 |
| 20260506060328 | 57 | 229 | 2.6 | 4.3 | 0.00 | 0.00 | 0.00 | 85 | 1017.5 |